EW7988 Weather Reports


Display with metric or nautical units.
time (UTC)temp
F
wind
direction
speed
MPH
gust
MPH
rain 1hr
in
rain 24hr
in
rain mn
in
humidity
%
barometer
mb
20260505210016 76 29 0.0 0.0 0.00 0.00 0.00 37 1003.9
20260505204516 75 65 0.0 0.0 0.00 0.00 0.00 39 1004.2
20260505203023 75 64 0.0 0.0 0.00 0.00 0.00 40 1004.2
20260505201522 75 56 0.0 0.0 0.00 0.00 0.00 42 1004.3
20260505200014 74 19 0.0 0.0 0.00 0.00 0.00 43 1004.3
20260505194514 73 37 0.0 0.0 0.00 0.00 0.00 45 1004.5
20260505193012 73 53 0.0 0.0 0.00 0.00 0.00 43 1004.5
20260505191558 72 189 0.0 0.0 0.00 0.00 0.00 51 1004.6
20260505190055 71 360 0.0 0.0 0.00 0.00 0.00 52 1004.6
20260505184553 71 360 0.0 0.0 0.00 0.00 0.00 52 1004.8
20260505183048 69 360 0.0 0.0 0.00 0.00 0.00 56 1004.9
20260505181545 68 184 0.0 0.0 0.00 0.00 0.00 55 1004.9
20260505174556 65 200 0.0 0.0 0.00 0.00 0.00 59 1004.9
20260505173042 65 187 0.0 0.0 0.00 0.00 0.00 60 1004.9
20260505171523 63 200 0.0 0.0 0.00 0.00 0.00 63 1005.0
20260505170014 62 360 0.0 0.0 0.00 0.00 0.00 63 1005.1
20260505164511 62 360 0.0 0.0 0.00 0.00 0.00 65 1005.0
20260505163007 60 360 0.0 0.0 0.00 0.00 0.00 66 1005.1
20260505161501 60 360 0.0 0.0 0.00 0.00 0.00 67 1005.1
20260505160106 59 360 0.0 0.0 0.00 0.00 0.00 68 1005.0
20260505153059 57 41 0.0 0.0 0.00 0.00 0.00 73 1005.3
20260505151547 55 41 0.0 0.0 0.00 0.00 0.00 75 1005.2
20260505124507 49 32 0.0 0.0 0.00 0.00 0.00 77 1004.0
20260505123005 50 32 0.0 0.0 0.00 0.00 0.00 77 1003.9
20260505121506 50 32 0.0 0.0 0.00 0.00 0.00 78 1003.9
20260505120005 50 32 0.0 0.0 0.00 0.00 0.00 77 1003.9
20260505114504 49 32 0.0 0.0 0.00 0.00 0.00 77 1003.9
20260505113003 48 32 0.0 0.0 0.00 0.00 0.00 79 1003.9
20260505111503 48 32 0.0 0.0 0.00 0.00 0.00 78 1003.8
20260505101547 45 32 0.0 0.0 0.00 0.00 0.00 78 1003.4
20260505100050 46 32 0.0 0.0 0.00 0.00 0.00 77 1003.4
20260505094546 45 32 0.0 0.0 0.00 0.00 0.00 78 1003.4
20260505093046 46 32 0.0 0.0 0.00 0.00 0.00 76 1003.5
20260505091601 46 32 0.0 0.0 0.00 0.00 0.00 75 1003.6
20260505090044 45 32 0.0 0.0 0.00 0.00 0.00 77 1003.4
20260505084538 46 29 0.0 0.0 0.00 0.00 0.00 74 1003.3
20260505083025 46 18 0.0 0.0 0.00 0.00 0.00 76 1003.3
20260505081519 46 18 0.0 0.0 0.00 0.00 0.00 76 1003.3
20260505080113 46 17 0.0 0.0 0.00 0.00 0.00 73 1003.3
20260505074559 48 17 0.0 0.0 0.00 0.00 0.00 70 1003.1
20260505073035 48 5 0.0 0.0 0.00 0.00 0.00 71 1003.1
20260505071536 49 301 0.0 0.0 0.00 0.00 0.00 68 1002.9
20260505070012 51 293 0.0 0.0 0.00 0.00 0.00 65 1002.8
20260505064509 50 286 0.0 0.0 0.00 0.00 0.00 66 1002.8
20260505063105 52 278 0.0 0.0 0.00 0.00 0.00 62 1002.6
20260505061610 53 269 0.0 0.0 0.00 0.00 0.00 61 1002.4
20260505060029 54 267 0.0 0.0 0.00 0.00 0.00 58 1002.4
20260505054526 57 267 0.0 0.0 0.00 0.00 0.00 55 1002.2
20260505053021 59 267 0.0 0.0 0.00 0.00 0.00 52 1002.1
20260505051531 62 267 0.0 0.0 0.00 0.00 0.00 47 1002.0
20260505041506 64 360 0.0 0.0 0.00 0.00 0.00 44 1001.3
20260505040050 65 355 0.0 0.0 0.00 0.00 0.00 43 1000.8
20260505034545 66 346 0.0 0.0 0.00 0.00 0.00 41 1000.4
20260505033042 67 10 0.0 0.0 0.00 0.00 0.00 41 1000.3
20260505031539 69 333 0.0 0.0 0.00 0.00 0.00 40 1000.1
20260505030034 71 340 0.0 0.0 0.00 0.00 0.00 39 999.9
20260505024528 72 360 0.0 0.0 0.00 0.00 0.00 39 999.8
20260505023025 73 5 0.0 0.0 0.00 0.00 0.00 38 999.9
20260505021522 74 349 0.0 0.0 0.00 0.00 0.00 34 999.7
20260505020009 75 17 0.0 0.0 0.00 0.00 0.00 34 999.6
20260505014505 76 5 0.0 0.0 0.00 0.00 0.00 31 999.7
20260505013001 77 22 0.0 0.0 0.00 0.00 0.00 29 999.8
20260505011601 77 355 0.0 0.0 0.00 0.00 0.00 30 999.8
20260505010112 77 30 0.0 0.0 0.00 0.00 0.00 30 999.9
20260505004557 77 5 0.0 0.0 0.00 0.00 0.00 30 999.9
20260505003058 77 13 0.0 0.0 0.00 0.00 0.00 31 1000.0
20260505001603 77 27 0.0 0.0 0.00 0.00 0.00 32 1000.0
20260505000046 78 38 0.0 0.0 0.00 0.00 0.00 31 1000.1
20260504234538 77 22 0.0 0.0 0.00 0.00 0.00 31 1000.1
20260504233047 78 355 0.0 0.0 0.00 0.00 0.00 30 1000.3
20260504231543 78 11 0.0 0.0 0.00 0.00 0.00 29 1000.2
20260504230048 78 25 0.0 0.0 0.00 0.00 0.00 31 1000.3
20260504224534 78 28 0.0 0.0 0.00 0.00 0.00 31 1000.5
20260504223034 78 42 0.0 0.0 0.00 0.00 0.00 30 1000.5
20260504221533 78 304 0.0 0.0 0.00 0.00 0.00 30 1000.7
20260504220020 78 355 0.0 0.0 0.00 0.00 0.00 31 1000.8
20260504214519 78 28 0.0 0.0 0.00 0.00 0.00 28 1000.9
20260504213019 78 355 0.0 0.0 0.00 0.00 0.00 28 1001.2
20260504211517 78 28 0.0 0.0 0.00 0.00 0.00 27 1001.3